Lander, WY

10:22 AM MST on February 23, 2017 (GMT -0700)
South Pass

Weather History for KFWZ - November, 2012

Change the Weather History Date:

Friday, November 30, 2012

  Actual Average (KLND) Record (KLND)
Temperature  
Mean Temperature 34 °F -  
Max Temperature 37 °F 33 °F 63 °F (1999)
Min Temperature 30 °F 11 °F -19 °F (1896)
Degree Days  
Heating Degree Days 32    
Moisture  
Dew Point 29 °F    
Average Humidity 83    
Maximum Humidity 100    
Minimum Humidity 69    
Precipitation  
Precipitation 0.00 in - - ()
Sea Level Pressure  
Sea Level Pressure 29.86 in    
Wind  
Wind Speed 16 mph ()    
Max Wind Speed 37 mph    
Max Gust Speed 48 mph    
Visibility 8.2 miles    
Events Snow    
Averages and records for this station are not official NWS values.
T = Trace of Precipitation, MM = Missing Value Source: Averaged Metar Reports

Daily Weather History Graph

Daily Weather History Graph

Search for Another Location

Airport or City:

Trip Planner

Search our weather history database for the weather conditions in past years. The results will help you decide how hot, cold, wet, or windy it might be!

Date:

Astronomy

Nov. 30, 2012 Rise Set
Actual Time 7:24 AM MST 4:43 PM MST
Civil Twilight 6:53 AM MST 5:14 PM MST
Nautical Twilight 6:18 AM MST 5:49 PM MST
Astronomical Twilight 5:44 AM MST 6:23 PM MST
Moon 6:41 PM MST (11/30) 8:58 AM MST (11/30)
Length of Visible Light 10h 21m
Length of Day
9h 18m
Waning Gibbous, 96% of the Moon is Illuminated
Nov 30
Waning Gibbous
Dec 6
Last Quarter
Dec 13
New
Dec 19
First Quarter
Dec 28
Full

Hourly Weather History & Observations

Time (MST) Temp. Windchill Dew Point Humidity Pressure Visibility Wind Dir Wind Speed Gust Speed Precip Events Conditions
12:15 AM 30.2 °F 24.3 °F 23.0 °F 75% 30.01 in 10.0 mi WSW 5.8 mph - N/A   Scattered Clouds
12:35 AM 32.0 °F 24.8 °F 23.0 °F 69% 30.00 in 10.0 mi WSW 8.1 mph - N/A   Clear
12:55 AM 30.2 °F 24.3 °F 23.0 °F 75% 30.00 in 10.0 mi SW 5.8 mph - N/A   Clear
1:15 AM 32.0 °F 27.5 °F 24.8 °F 75% 29.98 in 10.0 mi SSW 4.6 mph - N/A   Clear
1:55 AM 30.2 °F 25.4 °F 24.8 °F 80% 29.98 in 10.0 mi SSW 4.6 mph - N/A   Clear
2:15 AM 30.2 °F 26.7 °F 24.8 °F 80% 29.98 in 10.0 mi South 3.5 mph - N/A   Clear
2:35 AM 30.2 °F 23.4 °F 24.8 °F 80% 29.96 in 10.0 mi SSE 6.9 mph - N/A   Clear
2:55 AM 30.2 °F 21.9 °F 26.6 °F 86% 29.96 in 10.0 mi SW 9.2 mph - N/A   Clear
3:15 AM 33.8 °F 25.3 °F 26.6 °F 75% 29.96 in 10.0 mi WSW 11.5 mph 20.7 mph N/A   Clear
3:35 AM 33.8 °F 25.8 °F 26.6 °F 75% 29.96 in 10.0 mi West 10.4 mph 16.1 mph N/A   Clear
3:55 AM 33.8 °F 25.3 °F 26.6 °F 75% 29.95 in 10.0 mi WSW 11.5 mph 18.4 mph N/A   Clear
4:15 AM 33.8 °F 25.3 °F 26.6 °F 75% 29.94 in 10.0 mi WSW 11.5 mph 20.7 mph N/A   Clear
4:35 AM 33.8 °F 25.3 °F 26.6 °F 75% 29.93 in 10.0 mi WSW 11.5 mph 21.9 mph N/A   Clear
5:15 AM 32.0 °F 25.6 °F 26.6 °F 80% 29.93 in 10.0 mi SW 6.9 mph - N/A   Clear
5:35 AM 32.0 °F 23.6 °F 26.6 °F 80% 29.92 in 10.0 mi WSW 10.4 mph - N/A   Clear
5:55 AM 33.8 °F 26.4 °F 26.6 °F 75% 29.92 in 10.0 mi SW 9.2 mph - N/A   Clear
6:15 AM 33.8 °F 26.4 °F 28.4 °F 81% 29.94 in 10.0 mi WSW 9.2 mph 19.6 mph N/A   Clear
6:55 AM 33.8 °F 25.8 °F 28.4 °F 81% 29.92 in 10.0 mi WSW 10.4 mph 17.3 mph N/A   Scattered Clouds
7:15 AM 33.8 °F 27.7 °F 28.4 °F 81% 29.92 in 10.0 mi SSW 6.9 mph 18.4 mph N/A   Clear
7:55 AM 33.8 °F 23.2 °F 28.4 °F 81% 29.91 in 10.0 mi WSW 17.3 mph 25.3 mph N/A   Clear
8:15 AM 35.6 °F 24.8 °F 28.4 °F 75% 29.91 in 10.0 mi WSW 19.6 mph 27.6 mph N/A   Clear
8:35 AM 35.6 °F 24.8 °F 28.4 °F 75% 29.90 in 10.0 mi WSW 19.6 mph 27.6 mph N/A   Clear
8:55 AM 35.6 °F 24.2 °F 28.4 °F 75% 29.90 in 10.0 mi WSW 21.9 mph 28.8 mph N/A   Clear
9:15 AM 35.6 °F 24.2 °F 28.4 °F 75% 29.89 in 10.0 mi WSW 21.9 mph 31.1 mph N/A   Clear
9:35 AM 35.6 °F 23.4 °F 30.2 °F 81% 29.88 in 10.0 mi WSW 25.3 mph 35.7 mph N/A   Clear
9:55 AM 37.4 °F 25.6 °F 30.2 °F 75% 29.87 in 10.0 mi WSW 26.5 mph 34.5 mph N/A   Clear
10:15 AM 37.4 °F 26.1 °F 30.2 °F 75% 29.87 in 10.0 mi WSW 24.2 mph 33.4 mph N/A   Clear
10:35 AM 37.4 °F 25.6 °F 30.2 °F 75% 29.87 in 10.0 mi WSW 26.5 mph 35.7 mph N/A   Clear
10:55 AM 37.4 °F 24.2 °F 30.2 °F 75% 29.86 in 10.0 mi WSW 34.5 mph 41.4 mph N/A   Clear
11:15 AM 35.6 °F 22.1 °F 30.2 °F 81% 29.85 in 10.0 mi WSW 32.2 mph 40.3 mph N/A   Clear
11:55 AM 37.4 °F 24.6 °F 30.2 °F 75% 29.82 in 10.0 mi WSW 32.2 mph 41.4 mph N/A   Clear
12:15 PM 37.4 °F 24.6 °F 28.4 °F 70% 29.81 in 10.0 mi WSW 32.2 mph 46.0 mph N/A   Clear
12:35 PM 35.6 °F 22.5 °F 30.2 °F 81% 29.80 in 10.0 mi WSW 29.9 mph 41.4 mph N/A   Clear
12:55 PM 37.4 °F 24.2 °F 28.4 °F 70% 29.79 in 10.0 mi WSW 34.5 mph 46.0 mph N/A   Clear
1:15 PM 35.6 °F 21.3 °F 28.4 °F 75% 29.79 in 10.0 mi WSW 36.8 mph 48.3 mph N/A   Clear
1:35 PM 35.6 °F 21.7 °F 30.2 °F 81% 29.78 in 10.0 mi WSW 34.5 mph 44.9 mph N/A   Clear
1:55 PM 35.6 °F 22.3 °F 30.2 °F 81% 29.77 in 10.0 mi WSW 31.1 mph 40.3 mph N/A   Clear
2:15 PM 35.6 °F 22.5 °F 30.2 °F 81% 29.76 in 10.0 mi WSW 29.9 mph 41.4 mph N/A   Clear
2:35 PM 35.6 °F 21.5 °F 30.2 °F 81% 29.77 in 10.0 mi WSW 35.7 mph 43.7 mph N/A   Clear
2:55 PM 35.6 °F 22.5 °F 30.2 °F 81% 29.76 in 10.0 mi WSW 29.9 mph 44.9 mph N/A   Clear
3:15 PM 35.6 °F 21.5 °F 30.2 °F 81% 29.76 in 10.0 mi WSW 35.7 mph 44.9 mph N/A   Clear
3:35 PM 35.6 °F 22.1 °F 30.2 °F 81% 29.77 in 10.0 mi WSW 32.2 mph 44.9 mph N/A   Clear
3:55 PM 35.6 °F 21.5 °F 30.2 °F 81% 29.76 in 10.0 mi WSW 35.7 mph 44.9 mph N/A   Clear
4:15 PM 35.6 °F 22.3 °F 30.2 °F 81% 29.77 in 10.0 mi WSW 31.1 mph 44.9 mph N/A   Clear
4:35 PM 35.6 °F 22.1 °F 30.2 °F 81% 29.78 in 10.0 mi WSW 32.2 mph 43.7 mph N/A   Clear
4:55 PM 35.6 °F 22.7 °F 30.2 °F 81% 29.78 in 10.0 mi WSW 28.8 mph 39.1 mph N/A   Clear
5:15 PM 33.8 °F 19.9 °F 30.2 °F 87% 29.78 in 10.0 mi WSW 31.1 mph 40.3 mph N/A   Clear
5:35 PM 33.8 °F 20.5 °F 30.2 °F 87% 29.78 in 10.0 mi WSW 27.6 mph 39.1 mph N/A   Clear
5:55 PM 33.8 °F 20.5 °F 30.2 °F 87% 29.78 in 10.0 mi WSW 27.6 mph 40.3 mph N/A   Clear
6:15 PM 33.8 °F 19.9 °F 30.2 °F 87% 29.77 in 10.0 mi WSW 31.1 mph 39.1 mph N/A   Clear
6:35 PM 35.6 °F 22.5 °F 30.2 °F 81% 29.79 in 10.0 mi WSW 29.9 mph 41.4 mph N/A   Clear
6:55 PM 35.6 °F 23.7 °F 30.2 °F 81% 29.79 in 10.0 mi WSW 24.2 mph 36.8 mph N/A   Clear
7:15 PM 33.8 °F 21.0 °F 30.2 °F 87% 29.79 in 10.0 mi WSW 25.3 mph 34.5 mph N/A   Scattered Clouds
7:35 PM 33.8 °F 20.8 °F 30.2 °F 87% 29.79 in 5.0 mi WSW 26.5 mph 35.7 mph N/A Snow Light Snow
7:55 PM 32.0 °F 17.9 °F 32.0 °F 100% 29.81 in 3.0 mi WSW 28.8 mph 40.3 mph N/A Snow Light Snow
8:15 PM 32.0 °F 18.9 °F 32.0 °F 100% 29.81 in 1.5 mi WSW 24.2 mph 35.7 mph N/A Snow Light Snow
8:35 PM 32.0 °F 19.8 °F 32.0 °F 100% 29.83 in 0.8 mi WSW 20.7 mph 31.1 mph N/A Snow Light Snow
8:55 PM 32.0 °F 19.8 °F 32.0 °F 100% 29.83 in 0.8 mi WSW 20.7 mph 29.9 mph N/A Snow Light Snow
9:15 PM 32.0 °F 20.1 °F 32.0 °F 100% 29.84 in 0.8 mi WSW 19.6 mph 31.1 mph N/A Snow Light Snow
9:35 PM 32.0 °F 19.5 °F 32.0 °F 100% 29.84 in 1.0 mi WSW 21.9 mph 28.8 mph N/A Snow Light Snow
9:55 PM 32.0 °F 19.8 °F 32.0 °F 100% 29.83 in 1.0 mi WSW 20.7 mph 29.9 mph N/A Snow Light Snow
10:15 PM 32.0 °F 19.2 °F 32.0 °F 100% 29.84 in 0.5 mi WSW 23.0 mph 31.1 mph N/A Snow Light Snow
10:35 PM 32.0 °F 19.8 °F 32.0 °F 100% 29.84 in 0.5 mi WSW 20.7 mph 28.8 mph N/A Snow Light Snow
10:55 PM 32.0 °F 20.1 °F 32.0 °F 100% 29.86 in 0.2 mi WSW 19.6 mph 25.3 mph N/A Snow Light Snow
11:15 PM 32.0 °F 20.8 °F 32.0 °F 100% 29.87 in 0.2 mi WSW 17.3 mph 26.5 mph N/A Snow Light Snow
11:35 PM 32.0 °F 20.5 °F 32.0 °F 100% 29.87 in 0.5 mi WSW 18.4 mph 24.2 mph N/A Snow Light Snow
11:55 PM 32.0 °F 20.8 °F 32.0 °F 100% 29.86 in 0.5 mi WSW 17.3 mph 24.2 mph N/A Snow Snow